Total_Precipitation_Accumulation
0.00 0.01 0.06 0.12 0.16 0.23 0.22 0.12 0.11 0.06 0.03 0.03 0.02 0.02 0.01 0.01 0.01 0.04 0.01 0.00 0.00 0.00 0.00 0.01 0.01 0.01 0.01 0.02 0.02 0.02 0.01 0.01 0.01 0.01 0.01 0.01 0.01 0.01 0.01 0.01 0.01 0.01 0.01 0.01 0.01 0.01 0.01 0.01 0.01
0.00 0.01 0.07 0.12 0.19 0.43 0.23 0.08 0.05 0.04 0.02 0.03 0.02 0.01 0.01 0.00 0.00 0.00 0.00 0.00 0.00 0.00 0.00 0.01 0.01 0.01 0.01 0.01 0.02 0.02 0.02 0.02 0.02 0.02 0.01 0.02 0.02 0.01 0.01 0.01 0.01 0.01 0.02 0.02 0.01 0.01 0.01 0.01 0.01
0.00 0.01 0.06 0.10 0.22 0.43 0.12 0.04 0.03 0.04 0.03 0.04 0.03 0.01 0.01 0.00 0.00 0.00 0.00 0.00 0.00 0.00 0.00 0.01 0.01 0.01 0.01 0.01 0.02 0.02 0.02 0.02 0.02 0.02 0.02 0.02 0.03 0.03 0.02 0.02 0.02 0.02 0.02 0.02 0.02 0.01 0.01 0.01 0.01
0.00 0.00 0.02 0.06 0.16 0.26 0.12 0.05 0.04 0.04 0.03 0.03 0.02 0.01 0.00 0.00 0.00 0.00 0.00 0.00 0.00 0.00 0.00 0.01 0.01 0.01 0.01 0.01 0.01 0.02 0.02 0.02 0.02 0.02 0.02 0.03 0.04 0.04 0.03 0.02 0.02 0.02 0.02 0.03 0.03 0.02 0.01 0.01 0.01
0.00 0.00 0.01 0.03 0.08 0.12 0.10 0.08 0.07 0.05 0.02 0.02 0.02 0.02 0.00 0.00 0.00 0.00 0.00 0.00 0.00 0.00 0.00 0.01 0.02 0.01 0.01 0.01 0.01 0.01 0.02 0.02 0.02 0.02 0.02 0.03 0.03 0.03 0.03 0.03 0.03 0.03 0.03 0.03 0.04 0.03 0.03 0.02 0.01
0.00 0.00 0.01 0.02 0.03 0.05 0.08 0.09 0.08 0.05 0.03 0.02 0.03 0.02 0.01 0.00 0.00 0.00 0.00 0.00 0.00 0.00 0.01 0.02 0.03 0.02 0.02 0.02 0.02 0.02 0.03 0.03 0.03 0.03 0.03 0.03 0.04 0.04 0.04 0.03 0.03 0.04 0.05 0.04 0.04 0.04 0.04 0.03 0.02
0.00 0.00 0.01 0.01 0.02 0.05 0.04 0.05 0.07 0.05 0.03 0.03 0.03 0.04 0.04 0.02 0.01 0.01 0.01 0.01 0.00 0.01 0.01 0.03 0.04 0.04 0.03 0.03 0.04 0.04 0.05 0.06 0.06 0.05 0.05 0.05 0.05 0.05 0.05 0.05 0.06 0.07 0.09 0.09 0.06 0.05 0.06 0.06 0.05
0.00 0.00 0.00 0.00 0.01 0.03 0.02 0.03 0.06 0.06 0.04 0.02 0.03 0.06 0.08 0.06 0.02 0.01 0.02 0.02 0.02 0.02 0.02 0.04 0.06 0.06 0.06 0.05 0.05 0.07 0.08 0.08 0.08 0.07 0.07 0.06 0.06 0.06 0.07 0.08 0.12 0.15 0.19 0.19 0.15 0.11 0.11 0.13 0.12
0.00 0.00 0.00 0.00 0.00 0.01 0.01 0.02 0.04 0.05 0.06 0.04 0.06 0.08 0.10 0.04 0.03 0.03 0.04 0.05 0.06 0.05 0.05 0.06 0.06 0.06 0.06 0.06 0.07 0.10 0.10 0.11 0.11 0.12 0.11 0.12 0.12 0.14 0.24 0.21 0.30 0.29 0.35 0.36 0.35 0.32 0.33 0.36 0.27
0.00 0.00 0.00 0.00 0.00 0.00 0.00 0.01 0.03 0.05 0.08 0.09 0.12 0.16 0.14 0.10 0.12 0.12 0.11 0.17 0.21 0.12 0.08 0.08 0.08 0.09 0.10 0.09 0.10 0.14 0.17 0.26 0.25 0.31 0.37 0.40 0.44 0.37 0.24 0.35 0.58 0.66 0.72 0.73 0.75 0.86 0.82 0.67 0.51
0.00 0.00 0.00 0.00 0.00 0.00 0.00 0.01 0.01 0.02 0.08 0.16 0.28 0.37 0.28 0.19 0.14 0.19 0.26 0.34 0.31 0.20 0.16 0.15 0.15 0.18 0.17 0.16 0.16 0.22 0.29 0.53 0.49 0.44 0.56 0.71 0.64 0.44 0.31 0.37 0.61 0.89 0.95 0.89 1.10 1.36 1.07 0.98 1.02
0.00 0.00 0.00 0.00 0.00 0.00 0.00 0.01 0.01 0.02 0.04 0.13 0.30 0.37 0.36 0.35 0.24 0.20 0.32 0.33 0.32 0.40 0.44 0.41 0.40 0.37 0.41 0.42 0.37 0.31 0.38 0.50 0.54 0.58 0.54 0.76 0.77 0.63 0.55 0.59 0.66 0.89 1.09 1.33 1.41 1.57 1.54 1.51 1.39
0.00 0.00 0.00 0.00 0.00 0.00 0.00 0.01 0.01 0.03 0.03 0.05 0.16 0.24 0.28 0.39 0.51 0.50 0.49 0.51 0.56 0.53 0.57 0.70 0.78 0.78 0.82 0.74 0.64 0.51 0.53 0.54 0.58 0.72 0.74 0.84 0.99 0.99 1.06 1.04 0.95 0.93 1.24 1.60 1.79 1.66 1.86 1.93 1.68
0.00 0.00 0.00 0.00 0.00 0.01 0.01 0.01 0.02 0.06 0.06 0.06 0.10 0.20 0.29 0.36 0.37 0.46 0.61 0.73 0.75 0.73 0.85 1.14 1.25 1.26 1.29 1.30 1.23 1.06 1.00 0.99 0.98 1.04 1.18 1.29 1.39 1.53 1.56 1.48 1.37 1.22 1.28 1.55 1.77 1.80 1.99 1.88 1.80
0.00 0.00 0.00 0.00 0.01 0.01 0.02 0.04 0.05 0.07 0.09 0.09 0.09 0.14 0.24 0.36 0.41 0.46 0.62 0.74 0.88 1.00 1.32 1.64 1.82 1.93 1.97 1.99 1.88 1.67 1.52 1.56 1.67 1.74 1.84 1.83 1.83 1.98 1.92 1.73 1.52 1.47 1.55 1.62 1.62 1.64 1.76 1.61 1.52
0.00 0.00 0.00 0.01 0.01 0.02 0.03 0.08 0.10 0.12 0.15 0.14 0.12 0.15 0.20 0.26 0.34 0.46 0.62 0.83 1.12 1.46 1.87 2.19 2.42 2.62 2.76 2.74 2.49 2.13 1.96 1.97 2.02 2.06 2.03 2.07 2.09 2.05 2.01 1.71 1.44 1.53 1.64 1.60 1.56 1.46 1.54 1.50 1.50
0.00 0.00 0.01 0.03 0.02 0.02 0.04 0.11 0.15 0.17 0.19 0.17 0.15 0.16 0.18 0.22 0.32 0.47 0.69 0.97 1.26 1.66 2.23 2.76 3.18 3.52 3.68 3.35 2.73 2.36 2.30 2.28 2.24 2.23 2.11 2.02 1.93 1.89 2.00 1.70 1.54 1.59 1.54 1.42 1.36 1.48 1.65 1.57 1.54
0.00 0.01 0.02 0.06 0.05 0.05 0.08 0.14 0.19 0.25 0.28 0.28 0.25 0.22 0.23 0.28 0.36 0.53 0.70 0.98 1.33 1.71 2.36 3.10 3.76 3.99 3.81 3.22 2.68 2.53 2.42 2.24 2.08 1.86 1.68 1.57 1.60 1.60 1.69 1.49 1.42 1.53 1.48 1.31 1.35 1.47 1.56 1.37 1.43
0.01 0.03 0.07 0.11 0.06 0.08 0.14 0.20 0.28 0.37 0.40 0.42 0.42 0.40 0.37 0.42 0.55 0.77 0.93 1.16 1.53 1.95 2.53 3.14 3.62 3.67 3.42 3.05 2.66 2.39 2.06 1.83 1.61 1.37 1.19 1.11 1.10 1.17 1.32 1.18 1.25 1.32 1.24 1.16 1.17 1.23 1.25 1.08 1.33
0.03 0.05 0.09 0.10 0.07 0.07 0.15 0.27 0.40 0.40 0.40 0.43 0.43 0.41 0.44 0.54 0.70 0.86 1.11 1.32 1.52 1.91 2.32 2.61 2.53 2.29 2.12 2.03 1.90 1.64 1.61 1.60 1.54 1.45 1.25 1.05 1.06 1.05 1.00 0.99 1.00 1.05 1.08 0.99 0.95 1.06 1.04 0.88 1.13
0.04 0.05 0.08 0.12 0.17 0.13 0.14 0.32 0.54 0.57 0.49 0.41 0.41 0.38 0.37 0.47 0.64 0.86 1.14 1.31 1.34 1.54 1.69 1.61 1.36 1.10 1.06 1.08 1.02 1.15 1.34 1.46 1.50 1.53 1.44 1.28 1.22 1.18 1.12 1.03 0.95 0.91 0.95 0.93 0.90 0.98 0.98 0.86 0.90
0.06 0.04 0.05 0.07 0.12 0.22 0.28 0.50 0.73 0.80 0.76 0.55 0.46 0.47 0.41 0.42 0.50 0.70 0.89 0.92 0.99 1.03 0.91 0.79 0.69 0.59 0.56 0.56 0.61 0.68 0.88 1.17 1.38 1.55 1.60 1.61 1.52 1.37 1.24 1.11 0.94 0.81 0.79 0.83 0.77 0.82 0.92 0.92 0.82
0.04 0.03 0.04 0.06 0.08 0.14 0.27 0.44 0.75 0.93 1.10 0.68 0.46 0.44 0.39 0.42 0.52 0.54 0.52 0.52 0.55 0.54 0.46 0.41 0.43 0.45 0.46 0.47 0.56 0.59 0.56 0.62 0.64 0.72 0.85 1.02 1.14 1.10 0.96 0.89 0.83 0.74 0.68 0.67 0.71 0.81 0.89 0.91 0.83
0.04 0.07 0.08 0.13 0.14 0.24 0.34 0.40 0.67 0.81 0.86 0.55 0.42 0.41 0.31 0.31 0.34 0.35 0.34 0.33 0.31 0.29 0.26 0.33 0.40 0.50 0.51 0.52 0.55 0.55 0.54 0.60 0.60 0.60 0.63 0.63 0.66 0.68 0.66 0.65 0.67 0.66 0.65 0.64 0.64 0.70 0.79 0.87 0.91
0.05 0.07 0.19 0.45 0.62 0.66 0.45 0.46 0.64 0.59 0.57 0.57 0.46 0.36 0.28 0.22 0.18 0.19 0.20 0.22 0.18 0.17 0.15 0.17 0.25 0.34 0.36 0.39 0.44 0.47 0.54 0.57 0.53 0.48 0.46 0.45 0.45 0.47 0.51 0.55 0.59 0.60 0.64 0.70 0.77 0.77 0.77 0.85 0.95
0.05 0.06 0.15 0.27 0.35 0.47 0.40 0.63 0.71 0.53 0.51 0.44 0.32 0.25 0.21 0.13 0.09 0.08 0.08 0.09 0.09 0.09 0.10 0.10 0.11 0.15 0.20 0.26 0.35 0.49 0.66 0.72 0.68 0.66 0.53 0.49 0.48 0.47 0.50 0.58 0.63 0.63 0.65 0.66 0.76 0.80 0.86 0.93 0.96
0.06 0.05 0.06 0.08 0.10 0.23 0.38 0.61 0.58 0.42 0.44 0.36 0.23 0.15 0.11 0.08 0.07 0.04 0.04 0.04 0.04 0.05 0.05 0.06 0.07 0.10 0.18 0.25 0.32 0.37 0.42 0.50 0.51 0.52 0.51 0.48 0.54 0.50 0.55 0.63 0.71 0.74 0.75 0.77 0.81 0.82 0.92 1.09 1.16
0.06 0.05 0.04 0.05 0.08 0.12 0.25 0.53 0.59 0.48 0.47 0.37 0.24 0.14 0.08 0.06 0.04 0.02 0.02 0.02 0.02 0.03 0.05 0.08 0.07 0.14 0.28 0.40 0.46 0.36 0.29 0.27 0.34 0.43 0.49 0.51 0.54 0.55 0.59 0.64 0.67 0.72 0.74 0.77 0.81 0.87 0.97 1.12 1.19
0.07 0.06 0.06 0.06 0.06 0.10 0.16 0.33 0.31 0.30 0.28 0.25 0.18 0.12 0.10 0.07 0.03 0.01 0.01 0.01 0.02 0.03 0.07 0.18 0.24 0.31 0.43 0.58 0.66 0.55 0.38 0.31 0.32 0.35 0.34 0.37 0.45 0.55 0.61 0.58 0.52 0.50 0.55 0.67 0.82 0.89 0.98 1.06 1.10
0.08 0.08 0.07 0.08 0.07 0.07 0.10 0.22 0.14 0.13 0.12 0.10 0.07 0.06 0.04 0.02 0.01 0.01 0.01 0.01 0.01 0.03 0.14 0.38 0.63 0.89 0.95 1.03 1.11 0.96 0.58 0.36 0.29 0.24 0.23 0.30 0.42 0.52 0.57 0.54 0.49 0.48 0.54 0.67 0.81 0.97 1.17 1.29 1.25